| time (UTC) | temp F | wind direction | speed knots | gust knots | rain 1hr in | rain 24hr in | rain mn in | humidity % | barometer mb |
| 20260507094003 | 53 | 150 | 0.0 | 2.6 | 0.00 | 0.00 | 0.00 | 85 | 1021.6 |
| 20260507093506 | 53 | 201 | 0.0 | 2.6 | 0.00 | 0.00 | 0.00 | 85 | 1021.6 |
| 20260507093020 | 53 | 173 | 0.9 | 1.7 | 0.00 | 0.00 | 0.00 | 85 | 1021.5 |
| 20260507092508 | 53 | 142 | 0.9 | 1.7 | 0.00 | 0.00 | 0.00 | 85 | 1021.6 |
| 20260507092002 | 54 | 156 | 0.9 | 1.7 | 0.00 | 0.00 | 0.00 | 85 | 1021.6 |
| 20260507091504 | 54 | 150 | 0.9 | 1.7 | 0.00 | 0.00 | 0.00 | 85 | 1021.6 |
| 20260507091003 | 54 | 128 | 0.9 | 1.7 | 0.00 | 0.00 | 0.00 | 85 | 1021.6 |
| 20260507090504 | 54 | 142 | 0.9 | 1.7 | 0.00 | 0.00 | 0.00 | 84 | 1021.6 |
| 20260507090010 | 54 | 137 | 0.0 | 1.7 | 0.00 | 0.00 | 0.00 | 84 | 1021.6 |
| 20260507085504 | 54 | 146 | 0.0 | 1.7 | 0.00 | 0.00 | 0.00 | 84 | 1021.6 |
| 20260507085007 | 54 | 145 | 0.0 | 1.7 | 0.00 | 0.00 | 0.00 | 84 | 1021.7 |
| 20260507084533 | 54 | 147 | 0.9 | 2.6 | 0.00 | 0.00 | 0.00 | 84 | 1021.7 |
| 20260507084003 | 54 | 161 | 0.9 | 2.6 | 0.00 | 0.00 | 0.00 | 84 | 1021.6 |
| 20260507083503 | 54 | 159 | 0.9 | 1.7 | 0.00 | 0.00 | 0.00 | 84 | 1021.6 |
| 20260507083017 | 54 | 146 | 0.0 | 1.7 | 0.00 | 0.00 | 0.00 | 84 | 1021.6 |
| 20260507082507 | 54 | 144 | 0.0 | 1.7 | 0.00 | 0.00 | 0.00 | 84 | 1021.6 |
| 20260507082006 | 54 | 143 | 0.0 | 1.7 | 0.00 | 0.00 | 0.00 | 83 | 1021.6 |
| 20260507081520 | 54 | 153 | 0.9 | 1.7 | 0.00 | 0.00 | 0.00 | 83 | 1021.7 |
| 20260507081003 | 54 | 142 | 0.9 | 1.7 | 0.00 | 0.00 | 0.00 | 83 | 1021.6 |
| 20260507080504 | 54 | 145 | 0.9 | 5.2 | 0.00 | 0.00 | 0.00 | 83 | 1021.6 |
| 20260507080005 | 54 | 119 | 0.0 | 5.2 | 0.00 | 0.00 | 0.00 | 84 | 1021.6 |
| 20260507075503 | 54 | 164 | 1.7 | 4.3 | 0.00 | 0.00 | 0.00 | 84 | 1021.5 |
| 20260507075005 | 54 | 181 | 0.9 | 3.5 | 0.00 | 0.00 | 0.00 | 84 | 1021.5 |
| 20260507074512 | 54 | 134 | 0.9 | 2.6 | 0.00 | 0.00 | 0.00 | 84 | 1021.5 |
| 20260507074004 | 54 | 151 | 0.9 | 2.6 | 0.00 | 0.00 | 0.00 | 84 | 1021.5 |
| 20260507073508 | 54 | 157 | 0.9 | 2.6 | 0.00 | 0.00 | 0.00 | 84 | 1021.4 |
| 20260507073015 | 54 | 148 | 0.9 | 2.6 | 0.00 | 0.00 | 0.00 | 84 | 1021.3 |
| 20260507072507 | 54 | 140 | 0.9 | 1.7 | 0.00 | 0.00 | 0.00 | 84 | 1021.3 |
| 20260507072006 | 54 | 138 | 0.9 | 1.7 | 0.00 | 0.00 | 0.00 | 84 | 1021.3 |
| 20260507071522 | 54 | 153 | 0.9 | 1.7 | 0.00 | 0.00 | 0.00 | 84 | 1021.3 |
| 20260507071008 | 54 | 154 | 0.9 | 1.7 | 0.00 | 0.00 | 0.00 | 84 | 1021.3 |
| 20260507070508 | 54 | 137 | 0.0 | 1.7 | 0.00 | 0.00 | 0.00 | 84 | 1021.3 |
| 20260507070025 | 54 | 144 | 0.9 | 1.7 | 0.00 | 0.00 | 0.00 | 84 | 1021.3 |
| 20260507065502 | 54 | 148 | 0.0 | 1.7 | 0.00 | 0.00 | 0.00 | 83 | 1021.1 |
| 20260507065004 | 54 | 150 | 0.9 | 1.7 | 0.00 | 0.00 | 0.00 | 83 | 1021.0 |
| 20260507064509 | 55 | 140 | 0.9 | 1.7 | 0.00 | 0.00 | 0.00 | 83 | 1021.0 |
| 20260507064004 | 55 | 148 | 0.9 | 1.7 | 0.00 | 0.00 | 0.00 | 82 | 1021.0 |
| 20260507063504 | 55 | 137 | 0.9 | 1.7 | 0.00 | 0.00 | 0.00 | 82 | 1021.0 |
| 20260507063013 | 55 | 144 | 0.0 | 1.7 | 0.00 | 0.00 | 0.00 | 82 | 1021.0 |
| 20260507062503 | 55 | 142 | 0.9 | 1.7 | 0.00 | 0.00 | 0.00 | 82 | 1021.0 |
| 20260507062007 | 55 | 135 | 0.9 | 1.7 | 0.00 | 0.00 | 0.00 | 83 | 1021.0 |
| 20260507061518 | 55 | 82 | 0.0 | 1.7 | 0.00 | 0.00 | 0.00 | 83 | 1021.1 |
| 20260507061004 | 55 | 5 | 0.0 | 1.7 | 0.00 | 0.00 | 0.00 | 82 | 1021.1 |
| 20260507060506 | 56 | 5 | 0.0 | 1.7 | 0.00 | 0.00 | 0.00 | 82 | 1021.1 |
| 20260507060024 | 56 | 5 | 0.0 | 1.7 | 0.00 | 0.00 | 0.00 | 82 | 1021.2 |
| 20260507055508 | 56 | 5 | 0.0 | 1.7 | 0.00 | 0.00 | 0.00 | 82 | 1021.2 |
| 20260507055008 | 56 | 5 | 0.0 | 0.9 | 0.00 | 0.00 | 0.00 | 82 | 1021.1 |
| 20260507054526 | 56 | 5 | 0.0 | 0.9 | 0.00 | 0.00 | 0.00 | 82 | 1021.2 |
| 20260507054005 | 56 | 333 | 0.0 | 0.0 | 0.00 | 0.00 | 0.00 | 81 | 1021.3 |
| 20260507053503 | 56 | 333 | 0.0 | 0.0 | 0.00 | 0.00 | 0.00 | 81 | 1021.2 |
| 20260507053008 | 56 | 333 | 0.0 | 0.9 | 0.00 | 0.00 | 0.00 | 81 | 1021.3 |
| 20260507052504 | 56 | 333 | 0.0 | 1.7 | 0.00 | 0.00 | 0.00 | 81 | 1021.3 |
| 20260507052004 | 56 | 333 | 0.0 | 1.7 | 0.00 | 0.00 | 0.00 | 81 | 1021.3 |
| 20260507051516 | 56 | 333 | 0.0 | 1.7 | 0.00 | 0.00 | 0.00 | 80 | 1021.4 |
| 20260507051004 | 56 | 333 | 0.0 | 1.7 | 0.00 | 0.00 | 0.00 | 80 | 1021.4 |
| 20260507050506 | 56 | 333 | 0.0 | 1.7 | 0.00 | 0.00 | 0.00 | 81 | 1021.4 |
| 20260507050038 | 56 | 333 | 0.0 | 1.7 | 0.00 | 0.00 | 0.00 | 80 | 1021.4 |
| 20260507045507 | 56 | 305 | 0.0 | 1.7 | 0.00 | 0.00 | 0.00 | 80 | 1021.3 |
| 20260507045007 | 56 | 305 | 0.0 | 1.7 | 0.00 | 0.00 | 0.00 | 80 | 1021.3 |
| 20260507044525 | 56 | 305 | 0.0 | 1.7 | 0.00 | 0.00 | 0.00 | 80 | 1021.3 |
| 20260507044008 | 56 | 299 | 0.0 | 1.7 | 0.00 | 0.00 | 0.00 | 80 | 1021.3 |
| 20260507043509 | 56 | 298 | 0.0 | 1.7 | 0.00 | 0.00 | 0.00 | 80 | 1021.3 |
| 20260507043007 | 56 | 292 | 0.0 | 0.9 | 0.00 | 0.00 | 0.00 | 80 | 1021.3 |
| 20260507042502 | 56 | 292 | 0.0 | 1.7 | 0.00 | 0.00 | 0.00 | 80 | 1021.3 |
| 20260507042006 | 56 | 244 | 0.0 | 1.7 | 0.00 | 0.00 | 0.00 | 79 | 1021.3 |
| 20260507041514 | 56 | 244 | 0.0 | 1.7 | 0.00 | 0.00 | 0.00 | 79 | 1021.2 |
| 20260507041003 | 56 | 244 | 0.0 | 1.7 | 0.00 | 0.00 | 0.00 | 79 | 1021.3 |
| 20260507040506 | 56 | 136 | 0.0 | 1.7 | 0.00 | 0.00 | 0.00 | 79 | 1021.2 |
| 20260507040018 | 56 | 136 | 0.0 | 1.7 | 0.00 | 0.00 | 0.00 | 79 | 1021.1 |
| 20260507035508 | 56 | 136 | 0.0 | 1.7 | 0.00 | 0.00 | 0.00 | 79 | 1021.0 |
| 20260507035008 | 56 | 136 | 0.0 | 1.7 | 0.00 | 0.00 | 0.00 | 78 | 1021.0 |
| 20260507034523 | 57 | 136 | 0.0 | 1.7 | 0.00 | 0.00 | 0.00 | 78 | 1021.0 |
| 20260507034008 | 56 | 136 | 0.0 | 1.7 | 0.00 | 0.00 | 0.00 | 78 | 1021.0 |
| 20260507033507 | 57 | 136 | 0.0 | 1.7 | 0.00 | 0.00 | 0.00 | 78 | 1021.0 |
| 20260507033026 | 57 | 136 | 0.0 | 1.7 | 0.00 | 0.00 | 0.00 | 77 | 1021.0 |
| 20260507032513 | 57 | 130 | 0.0 | 1.7 | 0.00 | 0.00 | 0.00 | 77 | 1020.9 |
| 20260507032012 | 57 | 105 | 0.0 | 2.6 | 0.00 | 0.00 | 0.00 | 77 | 1020.9 |
| 20260507031512 | 57 | 92 | 0.0 | 2.6 | 0.00 | 0.00 | 0.00 | 77 | 1020.9 |
| 20260507031008 | 57 | 166 | 0.0 | 1.7 | 0.00 | 0.00 | 0.00 | 77 | 1020.9 |
| 20260507030504 | 57 | 154 | 0.0 | 1.7 | 0.00 | 0.00 | 0.00 | 77 | 1020.9 |
| 20260507030017 | 57 | 153 | 0.0 | 1.7 | 0.00 | 0.00 | 0.00 | 77 | 1020.9 |
| 20260507025509 | 57 | 153 | 0.9 | 2.6 | 0.00 | 0.00 | 0.00 | 76 | 1020.9 |
| 20260507025008 | 57 | 188 | 0.9 | 2.6 | 0.00 | 0.00 | 0.00 | 76 | 1020.9 |
| 20260507024518 | 57 | 163 | 0.9 | 3.5 | 0.00 | 0.00 | 0.00 | 76 | 1021.0 |
| 20260507024012 | 57 | 151 | 0.9 | 3.5 | 0.00 | 0.00 | 0.00 | 76 | 1020.9 |
| 20260507023508 | 57 | 203 | 0.9 | 2.6 | 0.00 | 0.00 | 0.00 | 76 | 1020.8 |
| 20260507023025 | 57 | 149 | 0.9 | 2.6 | 0.00 | 0.00 | 0.00 | 75 | 1020.7 |
| 20260507022511 | 57 | 134 | 0.9 | 2.6 | 0.00 | 0.00 | 0.00 | 75 | 1020.7 |
| 20260507022010 | 57 | 90 | 0.0 | 1.7 | 0.00 | 0.00 | 0.00 | 75 | 1020.7 |
| 20260507021534 | 57 | 85 | 0.0 | 1.7 | 0.00 | 0.00 | 0.00 | 75 | 1020.7 |
| 20260507021005 | 57 | 144 | 0.0 | 1.7 | 0.00 | 0.00 | 0.00 | 75 | 1020.7 |
| 20260507020504 | 57 | 137 | 0.0 | 2.6 | 0.00 | 0.00 | 0.00 | 75 | 1020.7 |
| 20260507020016 | 57 | 147 | 0.9 | 2.6 | 0.00 | 0.00 | 0.00 | 74 | 1020.6 |
| 20260507015506 | 57 | 125 | 0.0 | 2.6 | 0.00 | 0.00 | 0.00 | 74 | 1020.6 |
| 20260507015010 | 57 | 69 | 0.9 | 3.5 | 0.00 | 0.00 | 0.00 | 74 | 1020.6 |
| 20260507014504 | 58 | 94 | 1.7 | 3.5 | 0.00 | 0.00 | 0.00 | 73 | 1020.6 |
| 20260507014002 | 58 | 134 | 0.9 | 3.5 | 0.00 | 0.00 | 0.00 | 74 | 1020.6 |
| 20260507013504 | 58 | 150 | 0.9 | 3.5 | 0.00 | 0.00 | 0.00 | 73 | 1020.6 |
| 20260507013004 | 58 | 145 | 0.9 | 3.5 | 0.00 | 0.00 | 0.00 | 73 | 1020.6 |
| 20260507012503 | 58 | 144 | 0.9 | 1.7 | 0.00 | 0.00 | 0.00 | 73 | 1020.6 |
| 20260507012006 | 58 | 119 | 0.9 | 1.7 | 0.00 | 0.00 | 0.00 | 73 | 1020.6 |
| 20260507011509 | 58 | 98 | 0.9 | 1.7 | 0.00 | 0.00 | 0.00 | 73 | 1020.6 |
| 20260507011004 | 58 | 75 | 0.9 | 1.7 | 0.00 | 0.00 | 0.00 | 73 | 1020.7 |
| 20260507010506 | 58 | 148 | 0.9 | 1.7 | 0.00 | 0.00 | 0.00 | 73 | 1020.9 |
| 20260507010020 | 58 | 159 | 0.0 | 1.7 | 0.00 | 0.00 | 0.00 | 74 | 1021.0 |
| 20260507005504 | 58 | 138 | 0.9 | 2.6 | 0.00 | 0.00 | 0.00 | 73 | 1021.0 |
| 20260507005007 | 58 | 172 | 0.9 | 2.6 | 0.00 | 0.00 | 0.00 | 73 | 1021.0 |
| 20260507004517 | 58 | 126 | 0.9 | 2.6 | 0.00 | 0.00 | 0.00 | 73 | 1021.0 |
| 20260507004009 | 58 | 151 | 0.9 | 2.6 | 0.00 | 0.00 | 0.00 | 73 | 1020.9 |
| 20260507003503 | 58 | 97 | 0.9 | 3.5 | 0.00 | 0.00 | 0.00 | 73 | 1020.9 |
| 20260507003004 | 58 | 143 | 0.9 | 4.3 | 0.00 | 0.00 | 0.00 | 72 | 1021.0 |
| 20260507002503 | 58 | 134 | 0.9 | 4.3 | 0.00 | 0.00 | 0.00 | 72 | 1020.9 |
| 20260507002003 | 58 | 143 | 1.7 | 5.2 | 0.00 | 0.00 | 0.00 | 72 | 1020.9 |
| 20260507001507 | 58 | 109 | 1.7 | 5.2 | 0.00 | 0.00 | 0.00 | 72 | 1020.9 |
| 20260507001003 | 58 | 134 | 0.9 | 5.2 | 0.00 | 0.00 | 0.00 | 71 | 1020.9 |
| 20260507000503 | 58 | 69 | 2.6 | 5.2 | 0.00 | 0.00 | 0.00 | 71 | 1020.9 |
| 20260507000012 | 58 | 164 | 0.0 | 4.3 | 0.00 | 0.00 | 0.00 | 72 | 1021.0 |
| 20260506235505 | 58 | 94 | 1.7 | 6.1 | 0.00 | 0.00 | 0.00 | 71 | 1020.9 |
| 20260506235004 | 58 | 161 | 1.7 | 6.1 | 0.00 | 0.00 | 0.00 | 72 | 1020.9 |
| 20260506234516 | 58 | 140 | 1.7 | 4.3 | 0.00 | 0.00 | 0.00 | 72 | 1020.9 |
| 20260506234004 | 58 | 147 | 1.7 | 5.2 | 0.00 | 0.00 | 0.00 | 73 | 1020.9 |
| 20260506233509 | 58 | 166 | 1.7 | 6.1 | 0.00 | 0.00 | 0.00 | 71 | 1020.9 |
| 20260506233022 | 58 | 142 | 1.7 | 6.1 | 0.00 | 0.00 | 0.00 | 72 | 1021.0 |
| 20260506232506 | 58 | 132 | 0.9 | 5.2 | 0.00 | 0.00 | 0.00 | 71 | 1021.0 |
| 20260506232003 | 59 | 161 | 2.6 | 7.0 | 0.00 | 0.00 | 0.00 | 71 | 1021.0 |
| 20260506231507 | 59 | 135 | 1.7 | 7.0 | 0.00 | 0.00 | 0.00 | 71 | 1021.0 |
| 20260506231004 | 59 | 168 | 2.6 | 11.3 | 0.00 | 0.00 | 0.00 | 72 | 1021.0 |
| 20260506230504 | 59 | 136 | 4.3 | 11.3 | 0.00 | 0.00 | 0.00 | 72 | 1021.0 |
| 20260506230009 | 59 | 180 | 2.6 | 7.8 | 0.00 | 0.00 | 0.00 | 72 | 1020.9 |
| 20260506225504 | 59 | 124 | 3.5 | 7.8 | 0.00 | 0.00 | 0.00 | 73 | 1021.0 |
| 20260506225003 | 59 | 177 | 1.7 | 5.2 | 0.00 | 0.00 | 0.00 | 73 | 1021.1 |
| 20260506224515 | 59 | 192 | 2.6 | 7.0 | 0.00 | 0.00 | 0.00 | 73 | 1021.0 |
| 20260506224004 | 59 | 110 | 2.6 | 7.0 | 0.00 | 0.00 | 0.00 | 73 | 1021.0 |
| 20260506223507 | 59 | 123 | 2.6 | 6.1 | 0.00 | 0.00 | 0.00 | 73 | 1021.1 |
| 20260506223020 | 59 | 142 | 2.6 | 5.2 | 0.00 | 0.00 | 0.00 | 74 | 1021.1 |
| 20260506222506 | 59 | 141 | 1.7 | 4.3 | 0.00 | 0.00 | 0.00 | 74 | 1021.2 |
| 20260506222009 | 59 | 138 | 1.7 | 4.3 | 0.00 | 0.00 | 0.00 | 74 | 1021.2 |
| 20260506221524 | 59 | 215 | 1.7 | 5.2 | 0.00 | 0.00 | 0.00 | 75 | 1021.2 |
| 20260506221009 | 59 | 218 | 2.6 | 7.0 | 0.00 | 0.00 | 0.00 | 75 | 1021.3 |
| 20260506220504 | 58 | 171 | 1.7 | 7.0 | 0.00 | 0.00 | 0.00 | 74 | 1021.3 |
| 20260506220008 | 58 | 175 | 1.7 | 6.1 | 0.00 | 0.00 | 0.00 | 76 | 1021.3 |
| 20260506215503 | 58 | 167 | 1.7 | 6.1 | 0.00 | 0.00 | 0.00 | 77 | 1021.3 |
| 20260506215006 | 58 | 152 | 2.6 | 7.0 | 0.00 | 0.00 | 0.00 | 76 | 1021.2 |
| 20260506214510 | 58 | 148 | 3.5 | 7.0 | 0.00 | 0.00 | 0.00 | 76 | 1021.3 |
| 20260506214004 | 58 | 202 | 2.6 | 7.0 | 0.00 | 0.00 | 0.00 | 76 | 1021.3 |
| 20260506213503 | 58 | 165 | 4.3 | 8.7 | 0.00 | 0.00 | 0.00 | 74 | 1021.3 |
| 20260506213016 | 59 | 151 | 3.5 | 8.7 | 0.00 | 0.00 | 0.00 | 75 | 1021.3 |
| 20260506212507 | 59 | 219 | 3.5 | 7.8 | 0.00 | 0.00 | 0.00 | 76 | 1021.2 |
| 20260506212007 | 59 | 159 | 1.7 | 6.1 | 0.00 | 0.00 | 0.00 | 75 | 1021.3 |
| 20260506211537 | 59 | 135 | 2.6 | 6.1 | 0.00 | 0.00 | 0.00 | 74 | 1021.4 |
| 20260506211009 | 59 | 158 | 1.7 | 6.1 | 0.00 | 0.00 | 0.00 | 74 | 1021.3 |
| 20260506210511 | 59 | 134 | 1.7 | 7.8 | 0.00 | 0.00 | 0.00 | 74 | 1021.2 |
| 20260506210033 | 59 | 182 | 3.5 | 7.8 | 0.00 | 0.00 | 0.00 | 74 | 1021.1 |
| 20260506205503 | 60 | 132 | 2.6 | 7.0 | 0.00 | 0.00 | 0.00 | 74 | 1021.0 |
| 20260506205004 | 60 | 155 | 1.7 | 5.2 | 0.00 | 0.00 | 0.00 | 74 | 1021.1 |
| 20260506204515 | 59 | 138 | 2.6 | 6.1 | 0.00 | 0.00 | 0.00 | 74 | 1021.0 |
| 20260506204004 | 59 | 81 | 3.5 | 11.3 | 0.00 | 0.00 | 0.00 | 74 | 1021.0 |
| 20260506203503 | 59 | 152 | 2.6 | 11.3 | 0.00 | 0.00 | 0.00 | 75 | 1021.1 |
| 20260506203015 | 59 | 144 | 5.2 | 9.6 | 0.00 | 0.00 | 0.00 | 75 | 1021.1 |
| 20260506202503 | 59 | 184 | 3.5 | 13.9 | 0.00 | 0.00 | 0.00 | 75 | 1021.1 |
| 20260506202007 | 59 | 146 | 5.2 | 13.9 | 0.00 | 0.00 | 0.00 | 75 | 1021.1 |
| 20260506201518 | 59 | 188 | 5.2 | 12.2 | 0.00 | 0.00 | 0.00 | 75 | 1021.1 |
| 20260506201009 | 59 | 125 | 5.2 | 12.2 | 0.00 | 0.00 | 0.00 | 74 | 1021.2 |
| 20260506200508 | 59 | 188 | 3.5 | 8.7 | 0.00 | 0.00 | 0.00 | 76 | 1021.1 |
| 20260506200029 | 59 | 147 | 2.6 | 5.2 | 0.00 | 0.00 | 0.00 | 76 | 1021.1 |
| 20260506195511 | 59 | 105 | 0.9 | 9.6 | 0.00 | 0.00 | 0.00 | 78 | 1021.0 |
| 20260506195013 | 58 | 173 | 2.6 | 9.6 | 0.00 | 0.00 | 0.00 | 80 | 1020.9 |
| 20260506194526 | 58 | 165 | 0.9 | 5.2 | 0.00 | 0.00 | 0.00 | 80 | 1020.9 |
| 20260506194005 | 57 | 114 | 0.9 | 5.2 | 0.00 | 0.00 | 0.00 | 80 | 1020.9 |
| 20260506193504 | 57 | 44 | 0.9 | 6.1 | 0.00 | 0.00 | 0.00 | 81 | 1020.9 |
| 20260506193011 | 57 | 127 | 1.7 | 6.1 | 0.00 | 0.00 | 0.00 | 81 | 1021.0 |
| 20260506192510 | 57 | 131 | 0.9 | 4.3 | 0.00 | 0.00 | 0.00 | 81 | 1021.0 |
| 20260506192005 | 57 | 115 | 0.9 | 6.1 | 0.00 | 0.00 | 0.00 | 81 | 1021.0 |
| 20260506191516 | 57 | 142 | 0.9 | 7.0 | 0.00 | 0.00 | 0.00 | 82 | 1020.9 |
| 20260506191006 | 57 | 146 | 2.6 | 7.0 | 0.00 | 0.00 | 0.00 | 82 | 1020.9 |
| 20260506190506 | 57 | 148 | 1.7 | 7.8 | 0.00 | 0.00 | 0.00 | 82 | 1020.9 |
| 20260506190024 | 57 | 196 | 2.6 | 7.8 | 0.00 | 0.00 | 0.00 | 81 | 1020.9 |
| 20260506185507 | 57 | 173 | 1.7 | 6.1 | 0.00 | 0.00 | 0.00 | 82 | 1020.9 |
| 20260506185007 | 57 | 146 | 1.7 | 7.0 | 0.00 | 0.00 | 0.00 | 81 | 1020.9 |
| 20260506184530 | 57 | 164 | 3.5 | 8.7 | 0.00 | 0.00 | 0.00 | 83 | 1021.0 |
| 20260506184008 | 57 | 159 | 3.5 | 8.7 | 0.00 | 0.00 | 0.00 | 82 | 1020.9 |
| 20260506183510 | 57 | 158 | 2.6 | 5.2 | 0.00 | 0.00 | 0.00 | 82 | 1020.8 |
| 20260506183010 | 57 | 166 | 1.7 | 4.3 | 0.00 | 0.00 | 0.00 | 82 | 1020.8 |
| 20260506182502 | 57 | 140 | 0.9 | 1.7 | 0.00 | 0.00 | 0.00 | 84 | 1020.8 |
| 20260506182009 | 56 | 136 | 0.9 | 1.7 | 0.00 | 0.00 | 0.00 | 84 | 1020.7 |
| 20260506181533 | 56 | 132 | 0.0 | 1.7 | 0.00 | 0.00 | 0.00 | 84 | 1020.9 |
| 20260506181006 | 56 | 120 | 0.0 | 5.2 | 0.00 | 0.00 | 0.00 | 84 | 1020.7 |
| 20260506180507 | 56 | 173 | 2.6 | 5.2 | 0.00 | 0.00 | 0.00 | 85 | 1020.8 |
| 20260506180019 | 56 | 181 | 0.9 | 3.5 | 0.00 | 0.00 | 0.00 | 85 | 1020.9 |
| 20260506175511 | 56 | 91 | 0.9 | 3.5 | 0.00 | 0.00 | 0.00 | 86 | 1020.8 |
| 20260506175008 | 56 | 138 | 0.9 | 5.2 | 0.00 | 0.00 | 0.00 | 87 | 1020.6 |
| 20260506174528 | 56 | 150 | 0.9 | 5.2 | 0.00 | 0.00 | 0.00 | 87 | 1020.4 |
| 20260506174014 | 55 | 148 | 0.9 | 3.5 | 0.00 | 0.00 | 0.00 | 87 | 1020.3 |
| 20260506173512 | 55 | 165 | 0.9 | 4.3 | 0.00 | 0.00 | 0.00 | 86 | 1020.4 |
| 20260506173048 | 55 | 140 | 1.7 | 4.3 | 0.00 | 0.00 | 0.00 | 86 | 1020.5 |
| 20260506172510 | 55 | 147 | 1.7 | 6.1 | 0.00 | 0.00 | 0.00 | 86 | 1020.6 |
| 20260506172009 | 55 | 184 | 1.7 | 7.0 | 0.00 | 0.00 | 0.00 | 85 | 1020.7 |
| 20260506171516 | 55 | 171 | 3.5 | 7.0 | 0.00 | 0.00 | 0.00 | 85 | 1020.8 |
| 20260506171003 | 56 | 171 | 3.5 | 6.1 | 0.00 | 0.00 | 0.00 | 85 | 1020.8 |
| 20260506170503 | 56 | 149 | 0.9 | 3.5 | 0.00 | 0.00 | 0.00 | 86 | 1020.5 |
| 20260506170004 | 56 | 126 | 0.0 | 3.5 | 0.00 | 0.00 | 0.00 | 86 | 1020.5 |
| 20260506165506 | 56 | 140 | 0.9 | 1.7 | 0.00 | 0.00 | 0.00 | 86 | 1020.6 |
| 20260506165003 | 56 | 200 | 0.0 | 2.6 | 0.00 | 0.00 | 0.00 | 86 | 1020.5 |
| 20260506164505 | 56 | 172 | 0.9 | 2.6 | 0.00 | 0.00 | 0.00 | 86 | 1020.5 |
| 20260506164002 | 56 | 178 | 0.9 | 1.7 | 0.00 | 0.00 | 0.00 | 86 | 1020.6 |
| 20260506163502 | 56 | 148 | 0.0 | 2.6 | 0.00 | 0.00 | 0.00 | 86 | 1020.5 |
| 20260506163014 | 55 | 99 | 0.0 | 2.6 | 0.00 | 0.00 | 0.00 | 87 | 1020.4 |
| 20260506162503 | 55 | 142 | 0.0 | 1.7 | 0.00 | 0.00 | 0.00 | 88 | 1020.3 |
| 20260506162005 | 55 | 98 | 0.0 | 1.7 | 0.00 | 0.00 | 0.00 | 89 | 1020.4 |
| 20260506161510 | 55 | 61 | 0.9 | 2.6 | 0.00 | 0.00 | 0.00 | 88 | 1020.2 |
| 20260506161006 | 55 | 109 | 0.9 | 2.6 | 0.00 | 0.00 | 0.00 | 88 | 1020.2 |
| 20260506160504 | 55 | 105 | 0.9 | 2.6 | 0.00 | 0.00 | 0.00 | 88 | 1020.2 |
| 20260506160011 | 55 | 71 | 0.9 | 2.6 | 0.00 | 0.00 | 0.00 | 89 | 1020.0 |
| 20260506155504 | 55 | 113 | 0.0 | 5.2 | 0.00 | 0.00 | 0.00 | 89 | 1020.0 |
| 20260506155004 | 55 | 76 | 0.9 | 5.2 | 0.00 | 0.00 | 0.00 | 90 | 1019.8 |
| 20260506154503 | 54 | 99 | 0.9 | 3.5 | 0.00 | 0.00 | 0.00 | 90 | 1019.7 |
| 20260506154003 | 54 | 120 | 0.9 | 3.5 | 0.00 | 0.00 | 0.00 | 90 | 1019.8 |
| 20260506153503 | 54 | 150 | 0.9 | 3.5 | 0.00 | 0.00 | 0.00 | 91 | 1019.8 |
| 20260506153006 | 54 | 50 | 0.0 | 3.5 | 0.00 | 0.00 | 0.00 | 91 | 1019.9 |
| 20260506152504 | 54 | 90 | 0.9 | 2.6 | 0.00 | 0.00 | 0.00 | 91 | 1019.9 |
| 20260506152004 | 54 | 106 | 0.9 | 2.6 | 0.00 | 0.00 | 0.00 | 91 | 1020.1 |
| 20260506151509 | 54 | 104 | 0.0 | 1.7 | 0.00 | 0.00 | 0.00 | 91 | 1020.2 |
| 20260506151005 | 54 | 108 | 0.0 | 1.7 | 0.00 | 0.00 | 0.00 | 91 | 1020.2 |
| 20260506150502 | 54 | 108 | 0.0 | 1.7 | 0.00 | 0.00 | 0.00 | 91 | 1020.2 |
| 20260506150015 | 54 | 86 | 0.0 | 1.7 | 0.00 | 0.00 | 0.00 | 91 | 1020.0 |
| 20260506145504 | 54 | 103 | 0.0 | 1.7 | 0.00 | 0.00 | 0.00 | 92 | 1019.9 |
| 20260506145005 | 53 | 104 | 0.9 | 2.6 | 0.00 | 0.00 | 0.00 | 91 | 1019.8 |
| 20260506144514 | 53 | 63 | 0.9 | 2.6 | 0.00 | 0.00 | 0.00 | 91 | 1019.8 |
| 20260506144005 | 53 | 95 | 0.9 | 2.6 | 0.00 | 0.00 | 0.00 | 91 | 1019.9 |
| 20260506143504 | 53 | 92 | 1.7 | 3.5 | 0.00 | 0.00 | 0.00 | 91 | 1019.9 |
| 20260506143004 | 53 | 86 | 0.9 | 3.5 | 0.00 | 0.00 | 0.00 | 91 | 1019.9 |
| 20260506142503 | 53 | 96 | 0.0 | 2.6 | 0.00 | 0.00 | 0.00 | 91 | 1019.9 |
| 20260506142005 | 53 | 86 | 0.9 | 2.6 | 0.00 | 0.00 | 0.00 | 91 | 1019.9 |
| 20260506141508 | 53 | 90 | 0.9 | 2.6 | 0.00 | 0.00 | 0.00 | 91 | 1019.8 |
| 20260506141003 | 53 | 101 | 0.0 | 1.7 | 0.00 | 0.00 | 0.00 | 91 | 1019.8 |
| 20260506140505 | 53 | 81 | 0.0 | 1.7 | 0.00 | 0.00 | 0.00 | 90 | 1019.7 |
| 20260506140018 | 53 | 106 | 0.0 | 1.7 | 0.00 | 0.00 | 0.00 | 90 | 1019.8 |
| 20260506135506 | 53 | 86 | 0.9 | 1.7 | 0.00 | 0.00 | 0.00 | 90 | 1019.8 |
| 20260506135003 | 53 | 92 | 0.0 | 1.7 | 0.00 | 0.00 | 0.00 | 90 | 1019.8 |
| 20260506134514 | 53 | 111 | 0.0 | 1.7 | 0.00 | 0.00 | 0.00 | 90 | 1019.8 |
| 20260506134008 | 53 | 86 | 0.0 | 1.7 | 0.00 | 0.00 | 0.00 | 90 | 1019.8 |
| 20260506133510 | 53 | 86 | 0.0 | 1.7 | 0.00 | 0.00 | 0.00 | 90 | 1019.8 |
| 20260506133015 | 53 | 86 | 0.0 | 1.7 | 0.00 | 0.00 | 0.00 | 90 | 1019.6 |
| 20260506132507 | 53 | 86 | 0.0 | 0.9 | 0.00 | 0.00 | 0.00 | 90 | 1019.6 |
| 20260506132003 | 53 | 86 | 0.0 | 1.7 | 0.00 | 0.00 | 0.00 | 90 | 1019.6 |
| 20260506131508 | 53 | 86 | 0.0 | 1.7 | 0.00 | 0.00 | 0.00 | 90 | 1019.7 |
| 20260506131005 | 53 | 86 | 0.0 | 1.7 | 0.00 | 0.00 | 0.00 | 90 | 1019.6 |
| 20260506130503 | 53 | 86 | 0.0 | 1.7 | 0.00 | 0.00 | 0.00 | 90 | 1019.5 |
| 20260506130009 | 53 | 66 | 0.0 | 1.7 | 0.00 | 0.00 | 0.00 | 90 | 1019.3 |
| 20260506125502 | 53 | 66 | 0.0 | 1.7 | 0.00 | 0.00 | 0.00 | 90 | 1019.3 |
| 20260506125006 | 53 | 66 | 0.0 | 1.7 | 0.00 | 0.00 | 0.00 | 91 | 1019.2 |
| 20260506124517 | 53 | 66 | 0.0 | 1.7 | 0.00 | 0.00 | 0.00 | 91 | 1019.3 |
| 20260506124007 | 53 | 56 | 0.0 | 1.7 | 0.00 | 0.00 | 0.00 | 91 | 1019.3 |
| 20260506123504 | 53 | 56 | 0.0 | 1.7 | 0.00 | 0.00 | 0.00 | 91 | 1019.4 |
| 20260506123016 | 53 | 56 | 0.0 | 1.7 | 0.00 | 0.00 | 0.00 | 91 | 1019.2 |
| 20260506122507 | 53 | 78 | 0.0 | 0.9 | 0.00 | 0.00 | 0.00 | 91 | 1019.3 |
| 20260506122006 | 53 | 103 | 0.0 | 0.0 | 0.00 | 0.00 | 0.00 | 91 | 1019.2 |
| 20260506121517 | 53 | 103 | 0.0 | 0.0 | 0.00 | 0.00 | 0.00 | 91 | 1019.2 |
| 20260506121007 | 53 | 103 | 0.0 | 0.0 | 0.00 | 0.00 | 0.00 | 91 | 1019.2 |
| 20260506120503 | 52 | 103 | 0.0 | 0.0 | 0.00 | 0.00 | 0.00 | 91 | 1019.2 |
| 20260506120008 | 52 | 103 | 0.0 | 0.0 | 0.00 | 0.00 | 0.00 | 91 | 1019.1 |
| 20260506115504 | 52 | 103 | 0.0 | 0.0 | 0.00 | 0.00 | 0.00 | 91 | 1019.0 |
| 20260506115006 | 52 | 103 | 0.0 | 0.0 | 0.00 | 0.00 | 0.00 | 92 | 1019.1 |
| 20260506114510 | 52 | 103 | 0.0 | 0.0 | 0.00 | 0.00 | 0.00 | 92 | 1019.1 |
| 20260506114007 | 52 | 103 | 0.0 | 1.7 | 0.00 | 0.00 | 0.00 | 92 | 1019.1 |
| 20260506113507 | 52 | 103 | 0.0 | 1.7 | 0.00 | 0.00 | 0.00 | 92 | 1018.9 |
| 20260506113018 | 52 | 103 | 0.0 | 1.7 | 0.00 | 0.00 | 0.00 | 92 | 1018.8 |
| 20260506112509 | 52 | 103 | 0.0 | 1.7 | 0.00 | 0.00 | 0.00 | 92 | 1018.8 |
| 20260506112009 | 52 | 103 | 0.0 | 1.7 | 0.00 | 0.00 | 0.00 | 92 | 1018.7 |
| 20260506111519 | 52 | 103 | 0.0 | 1.7 | 0.00 | 0.00 | 0.00 | 92 | 1018.6 |
| 20260506111007 | 52 | 103 | 0.0 | 0.0 | 0.00 | 0.00 | 0.00 | 92 | 1018.6 |
| 20260506110506 | 52 | 103 | 0.0 | 1.7 | 0.00 | 0.00 | 0.00 | 92 | 1018.6 |
| 20260506110020 | 52 | 103 | 0.0 | 1.7 | 0.00 | 0.00 | 0.00 | 92 | 1018.5 |
| 20260506105508 | 52 | 93 | 0.9 | 1.7 | 0.00 | 0.00 | 0.00 | 92 | 1018.5 |
| 20260506105004 | 52 | 84 | 0.0 | 1.7 | 0.00 | 0.00 | 0.00 | 92 | 1018.5 |
| 20260506104527 | 52 | 94 | 0.0 | 1.7 | 0.00 | 0.00 | 0.00 | 92 | 1018.4 |
| 20260506104003 | 52 | 96 | 0.0 | 1.7 | 0.00 | 0.00 | 0.00 | 92 | 1018.4 |
| 20260506103503 | 52 | 115 | 0.0 | 1.7 | 0.00 | 0.00 | 0.00 | 92 | 1018.3 |
| 20260506103016 | 52 | 115 | 0.0 | 1.7 | 0.00 | 0.00 | 0.00 | 92 | 1018.3 |
| 20260506102508 | 52 | 100 | 0.0 | 1.7 | 0.00 | 0.00 | 0.00 | 91 | 1018.3 |
| 20260506102007 | 52 | 98 | 0.0 | 0.0 | 0.00 | 0.00 | 0.00 | 91 | 1018.3 |
| 20260506101520 | 52 | 111 | 0.0 | 0.0 | 0.00 | 0.00 | 0.00 | 91 | 1018.2 |
| 20260506101008 | 52 | 124 | 0.0 | 0.0 | 0.00 | 0.00 | 0.00 | 91 | 1018.2 |
| 20260506100508 | 52 | 124 | 0.0 | 0.0 | 0.00 | 0.00 | 0.00 | 91 | 1018.2 |
| 20260506100020 | 52 | 124 | 0.0 | 0.0 | 0.00 | 0.00 | 0.00 | 91 | 1018.2 |
| 20260506095509 | 52 | 124 | 0.0 | 0.0 | 0.00 | 0.00 | 0.00 | 91 | 1018.2 |
| 20260506095009 | 52 | 124 | 0.0 | 0.0 | 0.00 | 0.00 | 0.00 | 91 | 1018.1 |
| 20260506094522 | 52 | 124 | 0.0 | 0.0 | 0.00 | 0.00 | 0.00 | 91 | 1018.1 |